Twin Falls, ID

10:15 AM MDT on September 24, 2017 (GMT -0600)
Joslin Field-Magic Valley Regional

Weather History for KTWF - June, 2013

Change the Weather History Date:

Tuesday, June 18, 2013

  Actual Average Record
Temperature  
Mean Temperature 77 °F -  
Max Temperature 89 °F 81 °F 95 °F (2003)
Min Temperature 64 °F 51 °F 42 °F (2014)
Degree Days  
Heating Degree Days 0 2  
Month to date heating degree days 24 71  
Since 1 June heating degree days 24 71  
Since 1 July heating degree days 5706 6155  
Cooling Degree Days 12 3  
Month to date cooling degree days 98 36  
Year to date cooling degree days 123 58  
Since 1 June cooling degree days 98 36  
Growing Degree Days 26 (Base 50)    
Moisture  
Dew Point 33 °F    
Average Humidity 26    
Maximum Humidity 37    
Minimum Humidity 15    
Precipitation  
Precipitation 0.00 in 0.03 in 0.31 in (2002)
Month to date precipitation T 0.66  
Year to date precipitation 2.85 5.99  
Sea Level Pressure  
Sea Level Pressure 29.62 in    
Wind  
Wind Speed 12 mph (West)    
Max Wind Speed 28 mph    
Max Gust Speed 36 mph    
Visibility 10 miles    
Events      
T = Trace of Precipitation, MM = Missing Value Source: NWS Daily Summary

Daily Weather History Graph

Daily Weather History Graph

Search for Another Location

Airport or City:

Trip Planner

Search our weather history database for the weather conditions in past years. The results will help you decide how hot, cold, wet, or windy it might be!

Date:

Astronomy

Jun. 18, 2013 Rise Set
Actual Time 6:00 AM MDT 9:18 PM MDT
Civil Twilight 5:25 AM MDT 9:53 PM MDT
Nautical Twilight 4:40 AM MDT 10:38 PM MDT
Astronomical Twilight 3:44 AM MDT 11:33 PM MDT
Moon 4:02 PM MDT (6/18) 2:16 AM MDT (6/18)
Length of Visible Light 16h 27m
Length of Day
15h 17m
Waxing Gibbous, 71% of the Moon is Illuminated
Jun 18
Waxing Gibbous
Jun 23
Full
Jun 29
Last Quarter
Jul 8
New
Jul 15
First Quarter

Hourly Weather History & Observations

Time (MDT) Temp. Dew Point Humidity Pressure Visibility Wind Dir Wind Speed Gust Speed Precip Events Conditions
12:53 AM 66.0 °F 35.1 °F 32% 29.70 in 10.0 mi South 12.7 mph - N/A   Clear
1:53 AM 66.9 °F 33.1 °F 28% 29.69 in 10.0 mi SE 9.2 mph - N/A   Clear
2:53 AM 66.9 °F 32.0 °F 27% 29.68 in 10.0 mi South 15.0 mph - N/A   Clear
3:53 AM 66.9 °F 28.0 °F 23% 29.68 in 10.0 mi South 10.4 mph - N/A   Clear
4:53 AM 66.9 °F 25.0 °F 21% 29.69 in 10.0 mi South 13.8 mph - N/A   Clear
5:53 AM 66.9 °F 23.0 °F 19% 29.69 in 10.0 mi SSW 13.8 mph - N/A   Clear
6:53 AM 64.9 °F 25.0 °F 22% 29.71 in 10.0 mi SSW 15.0 mph - N/A   Clear
7:53 AM 70.0 °F 28.0 °F 21% 29.73 in 10.0 mi SSW 12.7 mph - N/A   Clear
8:53 AM 75.9 °F 26.1 °F 16% 29.72 in 10.0 mi WSW 15.0 mph 23.0 mph N/A   Clear
9:53 AM 78.1 °F 28.0 °F 16% 29.73 in 10.0 mi West 17.3 mph - N/A   Clear
10:53 AM 80.1 °F 30.0 °F 16% 29.73 in 10.0 mi West 11.5 mph - N/A   Clear
11:53 AM 81.0 °F 32.0 °F 17% 29.71 in 10.0 mi WNW 8.1 mph - N/A   Clear
12:53 PM 82.0 °F 32.0 °F 16% 29.69 in 10.0 mi West 6.9 mph - N/A   Clear
1:53 PM 84.0 °F 32.0 °F 15% 29.66 in 10.0 mi NNW 9.2 mph - N/A   Clear
2:53 PM 84.0 °F 32.0 °F 15% 29.62 in 10.0 mi NW 10.4 mph - N/A   Clear
3:53 PM 87.1 °F 34.0 °F 15% 29.58 in 10.0 mi NW 6.9 mph 18.4 mph N/A   Clear
4:53 PM 86.0 °F 35.1 °F 16% 29.54 in 10.0 mi NNW 8.1 mph - N/A   Clear
5:53 PM 86.0 °F 33.1 °F 15% 29.51 in 10.0 mi WNW 11.5 mph - N/A   Clear
6:53 PM 82.0 °F 39.9 °F 22% 29.48 in 10.0 mi NNE 10.4 mph - N/A   Clear
7:53 PM 81.0 °F 36.0 °F 20% 29.44 in 10.0 mi NW 9.2 mph - N/A   Clear
8:53 PM 78.1 °F 36.0 °F 22% 29.44 in 10.0 mi West 6.9 mph - N/A   Clear
9:53 PM 69.1 °F 42.1 °F 38% 29.48 in 4.0 mi West 15.0 mph - N/A   Haze
10:28 PM 66.2 °F 41.0 °F 40% 29.67 in 10.0 mi West 24.2 mph 31.1 mph N/A   Scattered Clouds
10:53 PM 66.0 °F 39.0 °F 37% 29.50 in 10.0 mi West 24.2 mph 32.2 mph N/A   Clear
11:53 PM 66.0 °F 36.0 °F 33% 29.51 in 10.0 mi WSW 17.3 mph 26.5 mph N/A   Clear